#�ϑ�����,���ϕ���,���ϕ���,�ő啗��,�ő啗����������,�ő�u�ԕ���,�ő�u�ԕ�����������
#(�N����),(m/s)   ,(16����),(m/s)   ,(16����)        ,(m/s)       ,(16����)            
2014/1/19 0:01,5.9,15,5.9,16,7.9,15
2014/1/19 0:02,5.9,16,5.9,16,7.5,1
2014/1/19 0:03,5.9,16,6,16,10.9,16
2014/1/19 0:04,5.7,16,5.9,16,5.6,16
2014/1/19 0:05,5.2,16,5.6,16,4.3,1
2014/1/19 0:06,4.6,16,5.2,16,6.2,15
2014/1/19 0:07,4.6,16,4.7,16,9.2,16
2014/1/19 0:08,4.2,16,4.6,16,4.2,1
2014/1/19 0:09,3.7,16,4.2,16,3.6,1
2014/1/19 0:10,3.5,16,3.7,16,5.5,15
2014/1/19 0:11,3.5,16,3.5,16,7.4,15
2014/1/19 0:12,3.4,16,3.5,16,6.2,1
2014/1/19 0:13,3.3,1,3.4,16,9.1,15
2014/1/19 0:14,3.7,16,3.7,16,12.5,16
2014/1/19 0:15,4,16,4,16,8.7,16
2014/1/19 0:16,4,16,4,16,7.2,15
2014/1/19 0:17,4.2,16,4.2,16,11.7,15
2014/1/19 0:18,4.6,16,4.6,16,12.3,16
2014/1/19 0:19,4.9,16,4.9,16,8.3,16
2014/1/19 0:20,5.2,16,5.2,16,12.6,16
2014/1/19 0:21,5.6,16,5.6,16,14,15
2014/1/19 0:22,5.8,16,5.8,16,9.2,16
2014/1/19 0:23,5.7,16,5.8,16,9.5,16
2014/1/19 0:24,5.4,16,5.7,16,10.6,16
2014/1/19 0:25,5.3,15,5.4,16,10.8,15
2014/1/19 0:26,5.5,15,5.5,16,9.8,16
2014/1/19 0:27,5.4,16,5.6,16,9.5,16
2014/1/19 0:28,5.3,16,5.4,16,7.6,15
2014/1/19 0:29,5.3,16,5.3,16,9.3,15
2014/1/19 0:30,5.2,16,5.4,16,7.9,16
2014/1/19 0:31,5.1,16,5.2,16,10.1,16
2014/1/19 0:32,5.2,16,5.2,16,12.2,16
2014/1/19 0:33,5.4,16,5.4,16,12.1,15
2014/1/19 0:34,5.6,16,5.6,15,10.7,15
2014/1/19 0:35,5.6,16,5.7,16,9.3,1
2014/1/19 0:36,5.3,16,5.5,16,6.1,1
2014/1/19 0:37,5.2,16,5.3,16,7.7,1
2014/1/19 0:38,5.1,16,5.2,16,7.5,1
2014/1/19 0:39,5.1,16,5.1,16,9,1
2014/1/19 0:40,5,16,5.1,16,6.8,1
2014/1/19 0:41,4.7,16,4.9,16,7.2,16
2014/1/19 0:42,4.5,16,4.7,16,6.8,16
2014/1/19 0:43,4.1,16,4.4,16,5.2,15
2014/1/19 0:44,3.8,16,4.1,16,6.1,16
2014/1/19 0:45,3.7,16,3.8,16,4.8,14
2014/1/19 0:46,3.8,16,3.8,16,7.5,16
2014/1/19 0:47,3.8,16,3.9,16,7.6,16
2014/1/19 0:48,4.1,16,4.1,16,12.6,16
2014/1/19 0:49,4.1,16,4.2,16,9.7,15
2014/1/19 0:50,4.3,16,4.3,16,8.9,16
2014/1/19 0:51,4.4,16,4.5,16,10.5,1
2014/1/19 0:52,4.4,16,4.5,16,7.8,15
2014/1/19 0:53,4.7,16,4.7,16,8.3,15
2014/1/19 0:54,4.7,16,4.7,16,7.4,16
2014/1/19 0:55,4.9,16,4.9,16,7.2,1
2014/1/19 0:56,5.1,16,5.1,16,9,15
2014/1/19 0:57,5.3,16,5.3,16,10.2,14
2014/1/19 0:58,5.3,16,5.4,16,8.4,15
2014/1/19 0:59,5.1,16,5.2,16,6.9,16
2014/1/19 1:00,4.9,16,5,16,5.7,16
2014/1/19 1:01,4.8,16,4.8,16,6.7,16
2014/1/19 1:02,4.9,16,4.9,16,8.9,16
2014/1/19 1:03,4.6,16,4.9,16,3.6,1
2014/1/19 1:04,4.5,16,4.6,16,5.6,14
2014/1/19 1:05,4.6,16,4.6,16,10.1,14
2014/1/19 1:06,4.6,16,4.6,16,11.9,1
2014/1/19 1:07,4.8,16,4.8,16,12.3,16
2014/1/19 1:08,5,16,5,16,12.8,15
2014/1/19 1:09,5.1,16,5.1,16,11.4,16
2014/1/19 1:10,5.3,16,5.4,16,9.1,1
2014/1/19 1:11,5.4,16,5.4,16,8.3,1
2014/1/19 1:12,5.7,16,5.7,16,13.4,1
2014/1/19 1:13,6.2,16,6.2,16,14.1,16
2014/1/19 1:14,6.7,16,6.8,16,13.3,16
2014/1/19 1:15,6.5,16,6.7,16,8.7,16
2014/1/19 1:16,6.6,16,6.6,16,10.8,15
2014/1/19 1:17,6.6,16,6.8,16,13.4,16
2014/1/19 1:18,6.3,16,6.6,16,10.3,15
2014/1/19 1:19,6.5,16,6.5,16,12.3,16
2014/1/19 1:20,6.3,16,6.5,16,10.7,15
2014/1/19 1:21,6.4,16,6.4,16,9.7,16
2014/1/19 1:22,6,16,6.4,16,8.9,16
2014/1/19 1:23,5.7,16,6,16,7.9,1
2014/1/19 1:24,5.6,16,5.7,16,14.4,1
2014/1/19 1:25,5.7,16,5.7,16,12.2,1
2014/1/19 1:26,5.8,16,5.8,16,14.1,16
2014/1/19 1:27,5.6,16,5.8,16,13.5,16
2014/1/19 1:28,5.9,16,5.9,16,14.8,1
2014/1/19 1:29,5.6,16,5.9,16,9.5,16
2014/1/19 1:30,5.5,16,5.6,16,9.9,2
2014/1/19 1:31,5.7,16,5.7,16,9,16
2014/1/19 1:32,5.9,16,5.9,16,13.5,16
2014/1/19 1:33,5.9,16,5.9,16,8.5,16
2014/1/19 1:34,5.5,16,5.8,16,9.4,1
2014/1/19 1:35,5.6,16,5.6,16,13.1,16
2014/1/19 1:36,5.6,16,5.6,16,10.2,16
2014/1/19 1:37,5.7,16,5.7,16,9.9,16
2014/1/19 1:38,5.6,16,5.8,16,11.8,16
2014/1/19 1:39,5.5,16,5.6,16,7,1
2014/1/19 1:40,5.6,16,5.6,16,9.1,16
2014/1/19 1:41,5.7,16,5.7,16,11.1,15
2014/1/19 1:42,5.4,16,5.7,16,11.1,15
2014/1/19 1:43,5.9,16,5.9,16,13.1,16
2014/1/19 1:44,6,16,6,16,7.1,16
2014/1/19 1:45,5.8,16,6,16,9.2,1
2014/1/19 1:46,5.8,16,5.8,16,9.8,16
2014/1/19 1:47,5.6,16,5.8,16,8.4,16
2014/1/19 1:48,5.5,16,5.5,16,10.3,1
2014/1/19 1:49,5.7,16,5.7,16,10.6,16
2014/1/19 1:50,5.7,16,5.8,16,10.5,15
2014/1/19 1:51,5.5,16,5.7,16,7.6,16
2014/1/19 1:52,5.8,16,5.8,16,12.7,15
2014/1/19 1:53,5.6,16,5.8,16,10.3,15
2014/1/19 1:54,5.5,16,5.6,16,7,16
2014/1/19 1:55,5.4,16,5.5,16,6.9,16
2014/1/19 1:56,5.2,16,5.4,16,9.8,16
2014/1/19 1:57,5.4,16,5.4,16,9.8,1
2014/1/19 1:58,5.6,16,5.6,16,12.2,16
2014/1/19 1:59,5.7,16,5.7,16,11.9,1
2014/1/19 2:00,5.7,16,5.7,16,10.5,16
2014/1/19 2:01,5.8,16,5.8,16,9.7,1
2014/1/19 2:02,5.5,16,5.8,16,8.1,16
2014/1/19 2:03,5.3,16,5.5,16,6.3,16
2014/1/19 2:04,5.3,16,5.3,16,8.9,15
2014/1/19 2:05,5.5,16,5.5,16,9.8,16
2014/1/19 2:06,5.4,16,5.5,16,6.1,1
2014/1/19 2:07,5.3,16,5.4,16,8.1,16
2014/1/19 2:08,5.2,16,5.3,16,13,16
2014/1/19 2:09,5.3,16,5.3,16,10.3,16
2014/1/19 2:10,5.2,16,5.2,16,7.9,16
2014/1/19 2:11,5.3,16,5.4,16,8.7,16
2014/1/19 2:12,5.4,16,5.4,16,10.3,16
2014/1/19 2:13,5.4,16,5.4,16,6.9,16
2014/1/19 2:14,5.2,16,5.4,16,4.2,16
2014/1/19 2:15,5,16,5.3,16,7.1,16
2014/1/19 2:16,5.2,16,5.2,16,7.8,15
2014/1/19 2:17,5,16,5.2,16,6.3,11
2014/1/19 2:18,4.5,15,5,16,5.5,10
2014/1/19 2:19,3.9,15,4.5,16,2.6,15
2014/1/19 2:20,3.7,15,3.9,16,5.7,16
2014/1/19 2:21,3.6,15,3.7,16,7.6,15
2014/1/19 2:22,3.8,15,3.8,16,12.6,16
2014/1/19 2:23,3.7,15,3.8,16,7.1,11
2014/1/19 2:24,3.7,15,3.8,16,6.1,4
2014/1/19 2:25,3.6,15,3.7,16,6.3,1
2014/1/19 2:26,3.8,15,3.8,16,10.9,15
2014/1/19 2:27,3.8,15,3.9,16,7.1,16
2014/1/19 2:28,4,15,4,15,6.1,14
2014/1/19 2:29,4.3,15,4.3,15,10.3,1
2014/1/19 2:30,4.2,16,4.4,15,4.4,16
2014/1/19 2:31,3.9,16,4.1,15,3.3,4
2014/1/19 2:32,3.3,16,3.9,15,2.2,2
2014/1/19 2:33,3.2,1,3.3,15,5,16
2014/1/19 2:34,3.1,1,3.2,15,5.6,15
2014/1/19 2:35,3.2,16,3.2,15,5.7,16
2014/1/19 2:36,2.7,16,3.2,15,4.2,16
2014/1/19 2:37,2.6,1,2.7,15,6.5,16
2014/1/19 2:38,2.6,1,2.6,15,6,15
2014/1/19 2:39,2.2,16,2.6,15,1.9,12
2014/1/19 2:40,2.1,16,2.2,16,1.1,12
2014/1/19 2:41,2.1,16,2.1,16,2.2,16
2014/1/19 2:42,2.1,15,2.1,16,2.2,14
2014/1/19 2:43,2,15,2.1,1,2.5,14
2014/1/19 2:44,2,14,2,16,3.2,8
2014/1/19 2:45,1.7,14,2,16,1.8,6
2014/1/19 2:46,1.7,14,1.7,16,2.9,4
2014/1/19 2:47,1.6,13,1.6,1,3.3,6
2014/1/19 2:48,1.5,10,1.6,1,3,2
2014/1/19 2:49,1.6,4,1.6,16,4.1,4
2014/1/19 2:50,1.8,4,1.8,16,4.8,1
2014/1/19 2:51,1.9,4,1.9,16,6.8,16
2014/1/19 2:52,2.4,4,2.4,4,11.4,15
2014/1/19 2:53,2.7,3,2.7,4,10.9,14
2014/1/19 2:54,2.8,2,2.8,3,5.6,2
2014/1/19 2:55,3.1,2,3.1,2,6.5,2
2014/1/19 2:56,3.3,1,3.3,1,5.5,16
2014/1/19 2:57,3.4,1,3.4,1,7.9,16
2014/1/19 2:58,3.8,16,3.8,16,7.2,16
2014/1/19 2:59,4,15,4,15,9.5,9
2014/1/19 3:00,4.2,15,4.2,15,9.3,10
2014/1/19 3:01,4.3,15,4.3,15,6.8,9
2014/1/19 3:02,3.9,14,4.3,15,3.7,10
2014/1/19 3:03,3.5,15,3.8,15,2.6,14
2014/1/19 3:04,3.6,14,3.6,15,5.4,15
2014/1/19 3:05,3.5,14,3.7,15,6.1,16
2014/1/19 3:06,3.4,14,3.5,15,4.8,12
2014/1/19 3:07,3.2,13,3.4,15,5.5,12
2014/1/19 3:08,3,13,3.2,15,5.4,1
2014/1/19 3:09,2.9,13,3,15,8.5,15
2014/1/19 3:10,2.7,14,2.9,15,6,14
2014/1/19 3:11,2.8,14,2.8,15,8.9,16
2014/1/19 3:12,2.9,15,2.9,14,5.7,15
2014/1/19 3:13,3.1,15,3.1,14,6.1,15
2014/1/19 3:14,2.9,15,3.1,14,3.6,16
2014/1/19 3:15,2.9,15,2.9,14,4.4,2
2014/1/19 3:16,3.1,15,3.1,13,9.4,16
2014/1/19 3:17,3.3,15,3.3,15,10.1,16
2014/1/19 3:18,3.3,15,3.3,15,3.9,11
2014/1/19 3:19,3.1,15,3.2,15,3.7,14
2014/1/19 3:20,3,14,3.1,15,3,14
2014/1/19 3:21,2.9,14,3.1,15,3.7,15
2014/1/19 3:22,2.6,14,2.9,15,2,14
2014/1/19 3:23,2.5,13,2.6,15,2.7,8
2014/1/19 3:24,2.5,14,2.5,15,1.9,6
2014/1/19 3:25,2.3,14,2.4,15,1.8,3
2014/1/19 3:26,2,13,2.3,15,0.5,4
2014/1/19 3:27,1.6,11,1.9,15,2.6,8
2014/1/19 3:28,1.5,9,1.6,15,2.5,8
2014/1/19 3:29,1.4,7,1.5,15,2,7
2014/1/19 3:30,1.2,6,1.4,14,0.9,16
2014/1/19 3:31,1.2,5,1.2,14,4.7,1
2014/1/19 3:32,1.5,4,1.5,14,6,15
2014/1/19 3:33,1.7,3,1.7,13,6.2,16
2014/1/19 3:34,2.1,2,2.1,14,9.2,16
2014/1/19 3:35,2.4,2,2.4,2,7.7,1
2014/1/19 3:36,2.9,1,2.9,1,9.2,1
2014/1/19 3:37,3.3,1,3.3,1,10.2,15
2014/1/19 3:38,3.3,1,3.3,1,3.2,16
2014/1/19 3:39,3.3,16,3.3,1,3.2,1
2014/1/19 3:40,3.5,16,3.5,16,6.1,16
2014/1/19 3:41,3.6,16,3.6,16,5.8,16
2014/1/19 3:42,3.7,16,3.7,16,7.6,1
2014/1/19 3:43,3.7,16,3.8,16,7.1,14
2014/1/19 3:44,3.9,16,3.9,16,11.6,15
2014/1/19 3:45,4.1,16,4.2,16,11.3,14
2014/1/19 3:46,3.8,16,4.1,16,5.6,14
2014/1/19 3:47,3.5,16,3.8,16,5.8,16
2014/1/19 3:48,3.5,16,3.5,16,2.6,1
2014/1/19 3:49,3.5,16,3.5,16,3.3,14
2014/1/19 3:50,3.5,16,3.5,16,4.7,1
2014/1/19 3:51,3.4,16,3.5,16,5.2,1
2014/1/19 3:52,3.4,16,3.5,16,6.7,1
2014/1/19 3:53,3.3,16,3.4,16,5.4,15
2014/1/19 3:54,2.9,16,3.3,16,4.8,16
2014/1/19 3:55,2.6,16,2.8,16,8.4,1
2014/1/19 3:56,2.7,16,2.7,16,6.9,16
2014/1/19 3:57,2.8,16,2.8,16,6.9,16
2014/1/19 3:58,3.2,16,3.2,16,9.5,2
2014/1/19 3:59,3.4,16,3.4,16,5.1,1
2014/1/19 4:00,3.8,16,3.8,16,9.8,2
2014/1/19 4:01,4.1,16,4.1,16,9.3,1
2014/1/19 4:02,4.4,16,4.4,16,11.3,16
2014/1/19 4:03,4.5,16,4.5,16,8.6,16
2014/1/19 4:04,4.7,1,4.7,16,10,2
2014/1/19 4:05,5,16,5,16,7.4,16
2014/1/19 4:06,4.7,16,4.9,16,2.9,12
2014/1/19 4:07,4.7,16,4.7,16,5.4,14
2014/1/19 4:08,4.3,16,4.6,16,3.8,16
2014/1/19 4:09,4.5,16,4.5,16,8.3,1
2014/1/19 4:10,4.4,16,4.5,16,8.6,16
2014/1/19 4:11,4.2,16,4.4,16,5.1,15
2014/1/19 4:12,3.8,16,4.2,16,5.4,1
2014/1/19 4:13,3.6,16,3.8,16,5.5,2
2014/1/19 4:14,3.6,16,3.6,16,9.2,16
2014/1/19 4:15,3.6,16,3.7,16,7.6,16
2014/1/19 4:16,3.9,16,3.9,16,6.7,16
2014/1/19 4:17,3.8,16,3.9,16,3.5,15
2014/1/19 4:18,3.9,16,3.9,16,3.9,1
2014/1/19 4:19,3.7,16,3.9,16,6.2,2
2014/1/19 4:20,3.4,16,3.7,16,5.4,15
2014/1/19 4:21,3.3,16,3.4,16,5.6,15
2014/1/19 4:22,3.3,16,3.3,16,6.4,3
2014/1/19 4:23,3.3,16,3.3,16,4.9,2
2014/1/19 4:24,3,16,3.3,16,3.9,13
2014/1/19 4:25,2.9,16,3,16,5.1,16
2014/1/19 4:26,2.9,16,2.9,16,6.9,16
2014/1/19 4:27,3.1,16,3.1,16,7.2,16
2014/1/19 4:28,3.2,16,3.2,16,4.5,15
2014/1/19 4:29,3.2,15,3.2,16,5.6,15
2014/1/19 4:30,3.4,15,3.4,16,10.2,15
2014/1/19 4:31,3.6,15,3.6,15,8.4,16
2014/1/19 4:32,3.7,15,3.7,15,7.2,16
2014/1/19 4:33,3.7,15,3.7,15,5.6,1
2014/1/19 4:34,3.9,15,3.9,15,8.5,13
2014/1/19 4:35,3.9,15,4,15,6.2,12
2014/1/19 4:36,3.9,15,3.9,15,6.1,1
2014/1/19 4:37,3.8,15,3.8,15,9.9,15
2014/1/19 4:38,4,15,4,15,7.5,15
2014/1/19 4:39,3.8,15,4,15,3.9,4
2014/1/19 4:40,3.7,16,3.8,15,4.9,16
2014/1/19 4:41,3.5,16,3.6,15,7.1,16
2014/1/19 4:42,3.6,16,3.6,15,7,16
2014/1/19 4:43,3.9,16,3.9,15,11.1,16
2014/1/19 4:44,4.2,16,4.2,16,20.6,16
2014/1/19 4:45,4.1,16,4.2,16,6.3,14
2014/1/19 4:46,4.3,16,4.3,16,8.9,14
2014/1/19 4:47,4.4,16,4.5,16,7.7,16
2014/1/19 4:48,4.3,16,4.4,16,8.2,15
2014/1/19 4:49,4.6,16,4.6,16,8.5,16
2014/1/19 4:50,4.6,16,4.7,16,6.1,10
2014/1/19 4:51,4.5,16,4.6,16,5.8,15
2014/1/19 4:52,4.4,15,4.5,16,5.8,16
2014/1/19 4:53,4,16,4.3,16,4.4,15
2014/1/19 4:54,3.7,16,4,16,11.9,1
2014/1/19 4:55,4.1,16,4.1,16,12.8,16
2014/1/19 4:56,4,16,4,16,7.7,15
2014/1/19 4:57,3.8,15,4,16,6.7,15
2014/1/19 4:58,3.7,15,3.8,16,3.7,15
2014/1/19 4:59,3.4,15,3.6,16,4.2,1
2014/1/19 5:00,3.4,16,3.4,16,4.9,1
2014/1/19 5:01,3.5,16,3.5,16,3.7,1
2014/1/19 5:02,3.5,16,3.5,15,4.5,16
2014/1/19 5:03,3.6,15,3.6,16,6,15
2014/1/19 5:04,3.4,15,3.7,16,4.4,14
2014/1/19 5:05,2.7,16,3.2,16,2.5,15
2014/1/19 5:06,2.4,16,2.7,16,3,1
2014/1/19 5:07,2.4,16,2.4,15,6.2,1
2014/1/19 5:08,2.3,16,2.4,15,4.5,2
2014/1/19 5:09,2.4,16,2.4,15,6.4,10
2014/1/19 5:10,2.3,16,2.4,15,5.4,8
2014/1/19 5:11,2.2,16,2.3,15,3.8,9
2014/1/19 5:12,2.1,15,2.2,15,4.7,9
2014/1/19 5:13,2.1,14,2.1,15,4.7,11
2014/1/19 5:14,1.9,14,2,15,2,15
2014/1/19 5:15,2,14,2,16,2.5,16
2014/1/19 5:16,1.9,13,2,16,1.8,14
2014/1/19 5:17,1.8,12,1.9,16,1.5,12
2014/1/19 5:18,1.8,11,1.8,16,4.2,8
2014/1/19 5:19,1.6,11,1.8,16,1.9,7
2014/1/19 5:20,1.5,11,1.6,16,1.9,12
2014/1/19 5:21,1.5,11,1.6,15,3.6,9
2014/1/19 5:22,1.6,11,1.6,14,4.1,13
2014/1/19 5:23,1.6,12,1.7,13,6.3,14
2014/1/19 5:24,1.8,12,1.8,14,6.8,14
2014/1/19 5:25,2.1,12,2.1,12,8.7,12
2014/1/19 5:26,2.3,12,2.3,12,6,13
2014/1/19 5:27,2.5,13,2.5,13,3.8,13
2014/1/19 5:28,2.4,14,2.5,13,3.6,16
2014/1/19 5:29,2.6,14,2.6,14,6,1
2014/1/19 5:30,2.9,14,2.9,14,7.1,16
2014/1/19 5:31,3.3,15,3.3,15,8.1,16
2014/1/19 5:32,3.4,15,3.4,15,6.2,16
2014/1/19 5:33,3.4,15,3.4,15,4.5,16
2014/1/19 5:34,3.4,16,3.4,15,4.5,1
2014/1/19 5:35,3.4,16,3.4,15,6.9,16
2014/1/19 5:36,3.3,16,3.4,15,5.6,14
2014/1/19 5:37,3.4,16,3.4,15,5.4,14
2014/1/19 5:38,3.6,16,3.6,16,6.5,12
2014/1/19 5:39,3.6,16,3.6,16,3.2,15
2014/1/19 5:40,3.4,16,3.5,16,5.1,16
2014/1/19 5:41,2.9,16,3.3,16,3.9,15
2014/1/19 5:42,3,16,3,16,6.7,16
2014/1/19 5:43,3.2,16,3.2,16,9.9,16
2014/1/19 5:44,3.3,15,3.3,16,7.2,13
2014/1/19 5:45,3.3,15,3.3,16,5.5,12
2014/1/19 5:46,3.3,15,3.3,16,5.6,1
2014/1/19 5:47,3.5,15,3.5,16,9.1,16
2014/1/19 5:48,3.7,15,3.7,15,9,16
2014/1/19 5:49,4.1,15,4.1,15,10.1,15
2014/1/19 5:50,4.2,14,4.2,15,6.2,12
2014/1/19 5:51,4.4,15,4.4,15,7.4,5
2014/1/19 5:52,4.3,15,4.4,15,6.4,15
2014/1/19 5:53,4.4,15,4.4,15,11.8,1
2014/1/19 5:54,4.4,16,4.5,15,8.7,2
2014/1/19 5:55,4.3,16,4.4,15,8.7,1
2014/1/19 5:56,4.4,16,4.4,15,5.8,15
2014/1/19 5:57,4.2,16,4.4,15,8.3,15
2014/1/19 5:58,4,16,4.2,15,7,1
2014/1/19 5:59,4.1,1,4.1,15,14.1,1
2014/1/19 6:00,4.4,1,4.4,15,9.8,1
2014/1/19 6:01,4.5,1,4.5,15,8.7,2
2014/1/19 6:02,4.4,1,4.5,15,4.2,2
2014/1/19 6:03,4.1,1,4.4,15,4.8,1
2014/1/19 6:04,4,16,4.1,1,5.6,16
2014/1/19 6:05,4,16,4,1,5.6,16
2014/1/19 6:06,4.1,16,4.1,1,9.9,15
2014/1/19 6:07,4.3,16,4.3,1,11.1,15
2014/1/19 6:08,4.5,16,4.5,1,8.3,16
2014/1/19 6:09,4.2,16,4.5,1,8.6,16
2014/1/19 6:10,4,16,4.2,1,6.9,15
2014/1/19 6:11,4.2,16,4.2,1,9.5,1
2014/1/19 6:12,4.6,16,4.6,16,10.7,1
2014/1/19 6:13,4.7,16,4.7,16,6.9,15
2014/1/19 6:14,4.8,16,4.9,16,7.5,15
2014/1/19 6:15,4.8,16,4.8,16,7.5,16
2014/1/19 6:16,4.9,16,4.9,16,9.3,16
2014/1/19 6:17,4.8,16,4.9,16,10.8,15
2014/1/19 6:18,4.7,16,4.8,16,9.4,2
2014/1/19 6:19,4.8,16,4.8,16,7.9,2
2014/1/19 6:20,4.6,16,4.8,16,5.4,15
2014/1/19 6:21,4.6,16,4.6,16,12.8,15
2014/1/19 6:22,4.5,16,4.6,16,10.6,1
2014/1/19 6:23,4.9,16,4.9,16,12.6,16
2014/1/19 6:24,4.8,16,4.9,16,7.4,16
2014/1/19 6:25,4.8,16,4.9,16,5.2,16
2014/1/19 6:26,4.9,16,4.9,16,13.5,16
2014/1/19 6:27,5,16,5,16,11.5,16
2014/1/19 6:28,5.3,16,5.3,16,14.9,16
2014/1/19 6:29,5.6,16,5.6,16,10.9,16
2014/1/19 6:30,5.8,16,5.8,16,8.3,15
2014/1/19 6:31,6,16,6,16,12.3,16
2014/1/19 6:32,5.8,16,6,16,8.7,16
2014/1/19 6:33,5.6,16,5.8,16,7.5,1
2014/1/19 6:34,6,16,6,16,12.5,15
2014/1/19 6:35,6.2,16,6.2,16,7,15
2014/1/19 6:36,5.9,16,6.2,16,6.3,2
2014/1/19 6:37,5.7,16,5.8,16,6,14
2014/1/19 6:38,5.1,16,5.6,16,5.8,1
2014/1/19 6:39,5,16,5.1,16,14.7,16
2014/1/19 6:40,5.2,16,5.2,16,12.8,16
2014/1/19 6:41,4.7,16,5.1,16,4.3,14
2014/1/19 6:42,4.8,16,4.8,16,11.1,16
2014/1/19 6:43,4.9,16,5,16,8.4,15
2014/1/19 6:44,4.7,16,5,16,8.7,16
2014/1/19 6:45,4.9,16,4.9,16,10,16
2014/1/19 6:46,5,16,5,16,9.4,1
2014/1/19 6:47,4.8,16,5,16,5,15
2014/1/19 6:48,5.2,16,5.2,16,11.7,15
2014/1/19 6:49,5.2,16,5.4,16,9,14
2014/1/19 6:50,4.9,16,5.1,16,8.5,13
2014/1/19 6:51,5.1,16,5.1,16,10,1
2014/1/19 6:52,5.2,16,5.2,16,11.5,1
2014/1/19 6:53,5.2,16,5.3,16,10.3,1
2014/1/19 6:54,5.2,16,5.3,16,9.2,1
2014/1/19 6:55,5.1,16,5.2,16,7.8,16
2014/1/19 6:56,5.3,16,5.3,16,12.6,15
2014/1/19 6:57,5.5,16,5.5,16,7.7,14
2014/1/19 6:58,5.1,16,5.5,16,4.3,1
2014/1/19 6:59,5,16,5.1,16,9.2,1
2014/1/19 7:00,5.1,16,5.1,16,9.3,1
2014/1/19 7:01,5.1,16,5.2,16,9.2,16
2014/1/19 7:02,5,16,5.1,16,9.1,1
2014/1/19 7:03,4.6,16,5,16,7.1,2
2014/1/19 7:04,4.6,16,4.6,16,7.4,15
2014/1/19 7:05,4.4,16,4.6,16,6.8,15
2014/1/19 7:06,4.3,16,4.4,16,9.2,15
2014/1/19 7:07,4.2,16,4.3,16,8.4,2
2014/1/19 7:08,4.6,16,4.6,16,12.7,15
2014/1/19 7:09,4.8,16,4.8,16,11.7,16
2014/1/19 7:10,4.9,16,5,16,13.5,16
2014/1/19 7:11,5.1,16,5.1,16,12.3,16
2014/1/19 7:12,5.2,16,5.3,16,13.8,1
2014/1/19 7:13,5.5,16,5.5,16,12.4,1
2014/1/19 7:14,5.5,16,5.5,16,11.4,1
2014/1/19 7:15,5.9,16,5.9,16,13.6,16
2014/1/19 7:16,5.7,16,5.9,16,7.8,16
2014/1/19 7:17,6.1,16,6.1,16,15.8,15
2014/1/19 7:18,6.5,16,6.5,16,13.9,16
2014/1/19 7:19,6.7,16,6.7,16,14.3,1
2014/1/19 7:20,6.6,16,6.6,16,9.3,16
2014/1/19 7:21,6.5,16,6.7,16,7,16
2014/1/19 7:22,6.1,16,6.4,16,7.7,15
2014/1/19 7:23,6.4,16,6.4,16,14.4,16
2014/1/19 7:24,6.5,16,6.6,16,13,16
2014/1/19 7:25,6.3,16,6.5,16,7.6,16
2014/1/19 7:26,6.4,16,6.4,16,8.4,2
2014/1/19 7:27,5.8,16,6.4,16,6.3,2
2014/1/19 7:28,5.1,16,5.8,16,3,16
2014/1/19 7:29,4.5,16,5,16,6.8,14
2014/1/19 7:30,4.4,16,4.5,16,10,16
2014/1/19 7:31,4.3,16,4.4,16,5,2
2014/1/19 7:32,4.3,1,4.3,16,10.1,2
2014/1/19 7:33,4,1,4.4,16,10,16
2014/1/19 7:34,4.1,1,4.1,16,8.5,16
2014/1/19 7:35,4,16,4.1,16,10.1,12
2014/1/19 7:36,3.6,16,3.9,16,3.7,2
2014/1/19 7:37,3.8,16,3.8,16,7.9,2
2014/1/19 7:38,4.1,16,4.1,16,7.5,16
2014/1/19 7:39,4.2,16,4.2,16,7.7,16
2014/1/19 7:40,3.9,16,4.2,16,4.9,15
2014/1/19 7:41,4.1,16,4.1,1,6.7,16
2014/1/19 7:42,3.9,16,4.1,1,5.4,1
2014/1/19 7:43,3.9,16,3.9,16,8.4,2
2014/1/19 7:44,3.6,16,3.9,16,7.7,1
2014/1/19 7:45,3.5,16,3.6,16,5.7,1
2014/1/19 7:46,3.9,16,3.9,16,6.8,1
2014/1/19 7:47,3.9,16,3.9,16,7.8,1
2014/1/19 7:48,4.1,16,4.1,16,8.2,16
2014/1/19 7:49,4,1,4,16,7.4,15
2014/1/19 7:50,4.3,16,4.3,16,10.8,16
2014/1/19 7:51,4.3,16,4.5,16,10,16
2014/1/19 7:52,4.5,1,4.5,16,11.5,16
2014/1/19 7:53,4.6,1,4.7,1,11.6,1
2014/1/19 7:54,4.8,16,4.8,16,8.4,16
2014/1/19 7:55,5,16,5,16,12.3,15
2014/1/19 7:56,5.2,16,5.2,16,10.6,15
2014/1/19 7:57,5.2,16,5.3,16,9.4,16
2014/1/19 7:58,5,16,5.2,16,6.3,16
2014/1/19 7:59,4.9,16,5.1,16,5.5,15
2014/1/19 8:00,4.7,16,4.9,16,5.5,16
2014/1/19 8:01,4.7,16,4.7,16,7.6,16
2014/1/19 8:02,4.7,16,4.8,16,8.6,1
2014/1/19 8:03,4.3,16,4.7,16,7.5,15
2014/1/19 8:04,4.5,16,4.5,16,9.7,16
2014/1/19 8:05,4.5,16,4.7,16,8.1,1
2014/1/19 8:06,4.3,16,4.4,16,9.1,1
2014/1/19 8:07,4.5,16,4.5,16,9.8,16
2014/1/19 8:08,4.4,16,4.5,16,7.4,16
2014/1/19 8:09,4.5,16,4.5,16,7,1
2014/1/19 8:10,4.8,16,4.8,16,9.9,1
2014/1/19 8:11,4.7,16,4.8,16,9.1,15
2014/1/19 8:12,4.7,16,4.8,16,7.5,16
2014/1/19 8:13,4.9,16,4.9,16,10.2,16
2014/1/19 8:14,4.7,16,4.9,16,7.4,16
2014/1/19 8:15,4.7,16,4.7,16,7.7,16
2014/1/19 8:16,4.6,16,4.7,16,6.3,16
2014/1/19 8:17,4.3,16,4.6,16,6.3,1
2014/1/19 8:18,4.6,16,4.6,16,10.5,16
2014/1/19 8:19,4.9,16,4.9,16,10.2,16
2014/1/19 8:20,4.8,16,5,16,9,16
2014/1/19 8:21,4.7,16,4.9,16,6.4,16
2014/1/19 8:22,4.9,16,4.9,16,9.4,16
2014/1/19 8:23,4.8,16,4.9,16,9,16
2014/1/19 8:24,4.8,16,4.8,16,8.5,2
2014/1/19 8:25,4.7,1,4.8,16,7.9,2
2014/1/19 8:26,4.8,1,4.8,16,8.4,16
2014/1/19 8:27,4.9,1,5,16,10.1,16
2014/1/19 8:28,4.7,1,4.9,16,10,16
2014/1/19 8:29,4.7,1,4.8,16,7.9,16
2014/1/19 8:30,4.8,1,4.8,1,9.2,1
2014/1/19 8:31,4.9,16,4.9,1,6.7,1
2014/1/19 8:32,4.9,16,5,1,11.4,16
2014/1/19 8:33,5,16,5,1,9,16
2014/1/19 8:34,5,16,5,1,7.8,16
2014/1/19 8:35,4.9,16,5,1,6.1,1
2014/1/19 8:36,4.8,16,4.9,1,6.7,14
2014/1/19 8:37,4.4,16,4.7,16,3,13
2014/1/19 8:38,4.2,16,4.4,16,4.1,16
2014/1/19 8:39,4.1,16,4.2,16,6.3,16
2014/1/19 8:40,3.8,16,4.1,16,5.6,15
2014/1/19 8:41,3.6,16,3.8,16,3.7,1
2014/1/19 8:42,3.3,16,3.6,16,5,2
2014/1/19 8:43,2.9,16,3.2,16,3.6,1
2014/1/19 8:44,2.7,16,2.9,16,4.3,15
2014/1/19 8:45,2.7,16,2.7,16,5.2,16
2014/1/19 8:46,2.7,16,2.7,16,5.4,15
2014/1/19 8:47,2.8,16,2.8,16,4.5,16
2014/1/19 8:48,2.8,16,2.9,16,4.1,16
2014/1/19 8:49,2.7,16,2.8,16,5.1,15
2014/1/19 8:50,3,16,3,16,7.7,15
2014/1/19 8:51,3.1,16,3.1,16,8.1,15
2014/1/19 8:52,3.1,15,3.2,16,3.9,14
2014/1/19 8:53,2.9,15,3.1,16,1.4,13
2014/1/19 8:54,2.9,15,2.9,16,2.2,15
2014/1/19 8:55,2.6,16,2.8,16,2.2,16
2014/1/19 8:56,2.6,16,2.6,16,8.1,15
2014/1/19 8:57,2.8,16,2.8,16,7.9,16
2014/1/19 8:58,2.7,15,2.8,16,5,15
2014/1/19 8:59,2.4,15,2.7,16,1.1,14
2014/1/19 9:00,2.1,15,2.4,16,3.9,16
2014/1/19 9:01,2,15,2,16,3.9,15
2014/1/19 9:02,1.9,16,2,15,3.8,1
2014/1/19 9:03,2.1,15,2.1,15,5.1,15
2014/1/19 9:04,2.1,16,2.1,15,2,2
2014/1/19 9:05,2.1,16,2.1,16,4.2,1
2014/1/19 9:06,2.3,16,2.3,16,6.4,1
2014/1/19 9:07,2.2,16,2.3,16,8.1,1
2014/1/19 9:08,2.4,16,2.4,15,5.7,16
2014/1/19 9:09,2.6,16,2.6,16,5,2
2014/1/19 9:10,2.7,16,2.7,16,5.8,16
2014/1/19 9:11,2.9,16,2.9,16,6.7,15
2014/1/19 9:12,3,16,3,16,4.8,1
2014/1/19 9:13,3,16,3,16,4.2,16
2014/1/19 9:14,3.1,1,3.1,16,3.8,16
2014/1/19 9:15,3.3,16,3.3,16,5.4,1
2014/1/19 9:16,3.1,16,3.3,16,3.9,15
2014/1/19 9:17,3,16,3.1,16,4.7,16
2014/1/19 9:18,2.8,16,2.9,16,3.1,14
2014/1/19 9:19,2.8,16,2.8,16,4.4,16
2014/1/19 9:20,2.9,16,2.9,16,6.1,16
2014/1/19 9:21,3,16,3,16,8.4,15
2014/1/19 9:22,3.1,16,3.1,16,7.1,1
2014/1/19 9:23,3.2,16,3.2,16,4.7,16
2014/1/19 9:24,3.3,16,3.3,16,6.4,2
2014/1/19 9:25,3.4,16,3.4,16,6.9,1
2014/1/19 9:26,3.6,16,3.6,16,5.8,16
2014/1/19 9:27,3.5,16,3.6,16,6.2,16
2014/1/19 9:28,3.8,16,3.8,16,7.9,1
2014/1/19 9:29,3.9,16,3.9,16,8.2,1
2014/1/19 9:30,4.1,16,4.1,16,9.1,16
2014/1/19 9:31,4,1,4.1,16,6.5,1
2014/1/19 9:32,3.9,1,3.9,16,5.8,16
2014/1/19 9:33,4.1,16,4.1,16,6.1,15
2014/1/19 9:34,4.1,16,4.2,16,6.2,16
2014/1/19 9:35,4,16,4,16,8.1,16
2014/1/19 9:36,4.3,16,4.3,16,9.2,16
2014/1/19 9:37,4.4,16,4.4,16,5.8,15
2014/1/19 9:38,4.3,16,4.4,16,5,1
2014/1/19 9:39,4.3,16,4.3,16,8.2,1
2014/1/19 9:40,4.1,16,4.4,16,6.8,1
2014/1/19 9:41,3.9,16,4.1,16,7,1
2014/1/19 9:42,3.9,16,3.9,16,7.4,1
2014/1/19 9:43,3.8,1,3.9,16,6.4,2
2014/1/19 9:44,3.8,1,3.8,16,8.2,2
2014/1/19 9:45,3.6,1,3.9,16,3.8,1
2014/1/19 9:46,3.2,1,3.5,16,4.4,1
2014/1/19 9:47,3.2,1,3.2,16,4.7,1
2014/1/19 9:48,3.2,1,3.2,16,5.1,16
2014/1/19 9:49,3,1,3.2,16,5.5,1
2014/1/19 9:50,3,16,3,16,6.4,1
2014/1/19 9:51,3.1,16,3.1,16,5.8,15
2014/1/19 9:52,2.9,16,3,16,3.7,16
2014/1/19 9:53,2.8,16,2.9,1,3.9,16
2014/1/19 9:54,2.8,16,2.8,1,6.9,16
2014/1/19 9:55,3.2,16,3.2,1,7.7,16
2014/1/19 9:56,3.3,16,3.4,16,7.1,15
2014/1/19 9:57,3.2,16,3.3,16,7.4,1
2014/1/19 9:58,3.3,16,3.3,16,6,1
2014/1/19 9:59,3.4,16,3.4,16,6.3,16
2014/1/19 10:00,3.2,16,3.4,16,5,16
2014/1/19 10:01,3.1,16,3.2,16,3.5,16
2014/1/19 10:02,3.2,16,3.2,16,8.4,16
2014/1/19 10:03,3.4,16,3.4,16,7.9,1
2014/1/19 10:04,3.4,16,3.5,16,5.8,16
2014/1/19 10:05,3,16,3.4,16,4.9,16
2014/1/19 10:06,2.9,1,3,16,7.2,1
2014/1/19 10:07,3.4,16,3.4,16,13.3,1
2014/1/19 10:08,3.3,16,3.4,16,7.2,16
2014/1/19 10:09,3.2,1,3.3,16,3.5,1
2014/1/19 10:10,3.4,16,3.4,16,9.5,15
2014/1/19 10:11,3.6,16,3.6,16,5.7,16
2014/1/19 10:12,3.8,16,3.8,16,8.7,15
2014/1/19 10:13,3.6,16,3.8,16,6.3,13
2014/1/19 10:14,3.4,16,3.6,16,3.5,1
2014/1/19 10:15,3.7,1,3.7,16,7.1,1
2014/1/19 10:16,4.1,1,4.1,1,9.2,16
2014/1/19 10:17,3.8,16,4.1,1,9.9,16
2014/1/19 10:18,3.8,16,3.8,1,3.7,16
2014/1/19 10:19,3.9,16,3.9,1,6.4,1
2014/1/19 10:20,3.7,16,3.9,1,6.5,16
2014/1/19 10:21,3.6,16,3.7,1,3.5,1
2014/1/19 10:22,3.4,1,3.6,1,4.7,2
2014/1/19 10:23,3.3,1,3.4,1,5.7,15
2014/1/19 10:24,3.5,1,3.5,1,6.3,16
2014/1/19 10:25,3.5,1,3.6,1,6.5,2
2014/1/19 10:26,3.1,1,3.5,1,6.9,1
2014/1/19 10:27,3.2,1,3.2,16,10.3,16
2014/1/19 10:28,3.5,1,3.5,16,11.5,1
2014/1/19 10:29,3.4,1,3.5,16,4.1,13
2014/1/19 10:30,3.3,1,3.4,16,4.1,16
2014/1/19 10:31,3.3,1,3.4,16,4.5,1
2014/1/19 10:32,3.3,1,3.4,1,3.9,2
2014/1/19 10:33,3.3,1,3.3,1,5.2,1
2014/1/19 10:34,3.1,16,3.3,1,3.3,13
2014/1/19 10:35,3,16,3.1,1,5.1,15
2014/1/19 10:36,3,16,3,1,5.6,14
2014/1/19 10:37,2.8,16,3,1,5.8,2
2014/1/19 10:38,2.6,16,2.8,1,7,2
2014/1/19 10:39,2.9,1,2.9,1,7.2,2
2014/1/19 10:40,3,1,3,1,7,1
2014/1/19 10:41,3.4,1,3.4,1,8.6,16
2014/1/19 10:42,3.6,1,3.6,1,8.5,16
2014/1/19 10:43,3.6,16,3.7,1,9,16
2014/1/19 10:44,3.7,16,3.7,1,3.1,6
2014/1/19 10:45,3.6,1,3.7,1,4.5,8
2014/1/19 10:46,3.5,1,3.6,1,2.6,5
2014/1/19 10:47,3.3,2,3.5,1,2.4,4
2014/1/19 10:48,3.2,2,3.3,1,6,16
2014/1/19 10:49,3,2,3.2,1,5.8,13
2014/1/19 10:50,2.8,2,3,1,3.5,4
2014/1/19 10:51,2.4,2,2.8,1,4.8,1
2014/1/19 10:52,2.3,2,2.4,1,8.5,2
2014/1/19 10:53,2.4,2,2.4,16,10.3,2
2014/1/19 10:54,3.1,2,3.1,1,11.8,16
2014/1/19 10:55,3.5,1,3.5,1,9.2,16
2014/1/19 10:56,3.6,16,3.6,1,7,15
2014/1/19 10:57,3.9,16,3.9,16,8.4,14
2014/1/19 10:58,4.1,16,4.2,15,9.9,15